TimePST,TemperatureF,Dew PointF,Humidity,Sea Level PressureIn,VisibilityMPH,Wind Direction,Wind SpeedMPH,Gust SpeedMPH,PrecipitationIn,Events,Conditions,WindDirDegrees,DateUTC
12:30 AM,19.4,19.4,100,30.42,0.5,South,3.5,-,N/A,Fog,Light Freezing Fog,170,2013-01-18 08:30:00
12:47 AM,19.4,19.4,100,30.41,1.0,SE,1.2,-,N/A,,Mist,140,2013-01-18 08:47:00
12:55 AM,19.0,19.0,100,30.40,0.8,South,2.3,-,N/A,,Mist,170,2013-01-18 08:55:00
1:07 AM,19.4,19.4,100,30.42,0.2,South,2.3,-,N/A,Fog,Light Freezing Fog,190,2013-01-18 09:07:00
1:55 AM,19.8,19.8,100,30.42,0.2,Calm,Calm,-,N/A,Fog,Light Freezing Fog,0,2013-01-18 09:55:00
2:55 AM,19.9,19.9,100,30.40,0.2,West,1.2,-,N/A,Fog,Light Freezing Fog,270,2013-01-18 10:55:00
3:34 AM,19.4,19.4,100,30.40,0.8,Calm,Calm,-,N/A,,Mist,0,2013-01-18 11:34:00
3:45 AM,19.4,19.4,100,30.40,0.5,Calm,Calm,-,N/A,Fog,Light Freezing Fog,0,2013-01-18 11:45:00
3:55 AM,19.9,19.9,100,30.39,0.5,Calm,Calm,-,N/A,Fog,Light Freezing Fog,0,2013-01-18 11:55:00
4:26 AM,19.4,19.4,100,30.39,0.2,East,2.3,-,N/A,Fog,Light Freezing Fog,80,2013-01-18 12:26:00
4:55 AM,18.9,18.9,100,30.39,0.2,ENE,2.3,-,N/A,Fog,Light Freezing Fog,70,2013-01-18 12:55:00
5:55 AM,18.1,18.1,100,30.36,0.8,East,2.3,-,N/A,,Mist,90,2013-01-18 13:55:00
6:32 AM,17.6,17.6,100,30.38,3.0,NNE,3.5,-,N/A,,Mostly Cloudy,30,2013-01-18 14:32:00
7:26 AM,17.6,17.6,100,30.25,5.0,Calm,Calm,-,N/A,Snow,Light Snow,0,2013-01-18 15:26:00
7:31 AM,17.6,17.6,100,30.25,4.0,Calm,Calm,-,N/A,Snow,Light Snow,0,2013-01-18 15:31:00
7:58 AM,18.1,18.1,100,30.38,5.0,NE,2.3,-,0.00,,Clear,40,2013-01-18 15:58:00
8:58 AM,18.3,18.3,100,30.37,5.0,East,1.2,-,0.00,,Clear,80,2013-01-18 16:58:00
9:58 AM,19.8,19.8,100,30.37,8.0,NNE,3.5,-,N/A,,Partly Cloudy,30,2013-01-18 17:58:00
10:58 AM,20.1,20.1,100,30.37,7.0,NNE,4.6,-,N/A,,Scattered Clouds,30,2013-01-18 18:58:00
11:58 AM,20.5,20.5,100,30.35,7.0,SSE,2.3,-,0.00,Snow,Light Snow,160,2013-01-18 19:58:00
12:58 PM,21.7,21.7,100,30.33,7.0,South,5.8,-,0.00,,Overcast,190,2013-01-18 20:58:00
2:58 PM,24.1,24.1,100,30.33,7.0,NNE,5.8,-,0.00,,Clear,30,2013-01-18 22:58:00
3:09 PM,23.0,23.0,100,30.22,7.0,NNE,4.6,-,N/A,,Clear,20,2013-01-18 23:09:00
3:20 PM,21.2,21.2,100,30.22,7.0,NNE,4.6,-,N/A,,Clear,20,2013-01-18 23:20:00
3:58 PM,23.0,23.0,100,30.34,6.0,Variable,1.2,-,N/A,,Clear,0,2013-01-18 23:58:00
4:31 PM,19.4,19.4,100,30.23,4.0,ENE,2.3,-,N/A,,Clear,60,2013-01-19 00:31:00
4:36 PM,17.6,17.6,100,30.23,4.0,NE,3.5,-,N/A,,Clear,50,2013-01-19 00:36:00
4:58 PM,18.3,18.3,100,30.35,5.0,NE,2.3,-,0.00,,Clear,40,2013-01-19 00:58:00
5:41 PM,17.6,17.6,100,30.23,5.0,ENE,2.3,-,N/A,Snow,Light Snow,60,2013-01-19 01:41:00
5:54 PM,17.6,17.6,100,30.23,1.8,Calm,Calm,-,N/A,Snow,Light Snow,0,2013-01-19 01:54:00
5:58 PM,17.8,17.6,99,30.36,1.0,Calm,Calm,-,0.00,Snow,Light Snow,0,2013-01-19 01:58:00
6:00 PM,17.6,17.6,100,30.23,1.0,Calm,Calm,-,N/A,,Clear,0,2013-01-19 02:00:00
6:05 PM,17.6,17.6,100,30.23,0.8,Calm,Calm,-,N/A,,Clear,0,2013-01-19 02:05:00
6:10 PM,17.6,17.6,100,30.23,0.2,Calm,Calm,-,N/A,Fog,Light Freezing Fog,0,2013-01-19 02:10:00
6:30 PM,19.4,19.4,100,30.23,0.5,North,1.2,-,N/A,Fog,Light Freezing Fog,10,2013-01-19 02:30:00
6:42 PM,19.4,19.4,100,30.23,3.0,North,2.3,-,N/A,,Clear,10,2013-01-19 02:42:00
6:44 PM,17.6,17.6,100,30.23,6.0,NNE,1.2,-,N/A,Snow,Light Snow,20,2013-01-19 02:44:00
6:50 PM,19.4,19.4,100,30.23,4.0,North,2.3,-,N/A,,Clear,10,2013-01-19 02:50:00
6:58 PM,19.0,19.0,100,30.36,5.0,North,3.5,-,0.00,,Clear,360,2013-01-19 02:58:00
7:49 PM,15.8,15.8,100,30.24,7.0,NNE,3.5,-,N/A,,Clear,30,2013-01-19 03:49:00
7:58 PM,16.2,16.2,100,30.37,3.0,NE,2.3,-,N/A,,Clear,40,2013-01-19 03:58:00
8:04 PM,15.8,15.8,100,30.24,0.5,Calm,Calm,-,N/A,Fog,Light Freezing Fog,0,2013-01-19 04:04:00
8:07 PM,15.8,15.8,100,30.24,0.2,NE,1.2,-,N/A,Fog-Snow,Light Freezing Fog,50,2013-01-19 04:07:00
8:29 PM,14.0,14.0,100,30.24,0.2,Calm,Calm,-,N/A,Fog,Light Freezing Fog,0,2013-01-19 04:29:00
8:58 PM,16.5,16.5,100,30.39,0.2,NE,2.3,-,0.00,Fog,Light Freezing Fog,50,2013-01-19 04:58:00
10:03 PM,14.0,14.0,100,30.27,0.2,Calm,Calm,-,N/A,Fog,Light Freezing Fog,0,2013-01-19 06:03:00
10:48 PM,12.2,12.2,100,30.27,0.2,Calm,Calm,-,N/A,Fog-Snow,Light Freezing Fog,0,2013-01-19 06:48:00
10:58 PM,12.2,12.2,100,30.40,0.2,Calm,Calm,-,0.00,Fog-Snow,Light Freezing Fog,0,2013-01-19 06:58:00
10:59 PM,12.2,12.2,100,30.27,0.2,Calm,Calm,-,N/A,Fog,Light Freezing Fog,0,2013-01-19 06:59:00
11:58 PM,12.2,12.2,100,30.41,0.2,NNE,3.5,-,0.00,Fog,Light Freezing Fog,30,2013-01-19 07:58:00